Regional Weather Roundup
Issued by NWS Upton, NY

Current Version | Previous Version | Graphics & Text | Print | Product List | Glossary Off
Versions: 1 2 3 4 5 6 7 8 9 10 11 12 13 14 15 16 17 18 19 20 21 22 23 24 25 26 27 28 29 30 31 32 33 34 35 36 37 38 39 40 41 42 43 44 45 46 47 48 49 50
000 ASUS41 KOKX 201405 RWROKX REGIONAL WEATHER ROUNDUP NATIONAL WEATHER SERVICE NEW YORK NY 900 AM EST SAT DEC 20 2014 NOTE: "FAIR" INDICATES FEW OR NO CLOUDS BELOW 12,000 FEET WITH NO SIGNIFICANT WEATHER AND/OR OBSTRUCTIONS TO VISIBILITY. NYZ071-072-176-178-NJZ106-104-201500- NEW YORK CITY METRO AREA CITY SKY/WX TMP DP RH WIND PRES REMARKS CENTRAL PARK CLOUDY 30 19 63 VRB3 30.30R LAGUARDIA APRT CLOUDY 31 21 66 N12 30.29R WCI 22 KENNEDY INTL CLOUDY 32 19 58 N9 30.30R WCI 24 NEWARK/LIBERTY CLOUDY 32 21 64 N7 30.29R WCI 26 BRNX BOT. GARD N/A N/A N/A N/A NW12 30.28F TETERBORO CLOUDY 31 19 61 NE6 30.28R WCI 25 $$ NYZ177-179-078>081-201500- LONG ISLAND NEW YORK CITY SKY/WX TMP DP RH WIND PRES REMARKS FARMINGDALE CLOUDY 32 21 64 NW5 30.28R WCI 27 ISLIP CLOUDY 32 22 66 N8 30.26R WCI 25 SHIRLEY CLOUDY 32 22 66 N7 30.28R WCI 26 WESTHAMPTON CLOUDY 32 22 66 NW7 30.28R WCI 26 MONTAUK POINT N/A 33 25 72 N5 30.27S WCI 29 $$ NYZ052-065-067-201500- HUDSON VALLEY CITY SKY/WX TMP DP RH WIND PRES REMARKS WHITE PLAINS PTSUNNY 29 19 66 VRB7 30.25S WCI 22 NEWBURGH CLOUDY 27 21 80 VRB6 30.28S WCI 20 MONTGOMERY CLOUDY 28 19 69 NE10 30.27R WCI 19 POUGHKEEPSIE CLOUDY 30 18 60 N8 30.30R WCI 22 ALBANY MOSUNNY 24 16 71 N7 30.33R WCI 16 $$ NJZ001-105-106-008-010-013-015-019>022-104-201500- NEW JERSEY CITY SKY/WX TMP DP RH WIND PRES REMARKS NEWARK/LIBERTY CLOUDY 32 21 64 N7 30.29R WCI 26 TETERBORO CLOUDY 31 19 61 NE6 30.28R WCI 25 CALDWELL CLOUDY 30 21 69 NE6 30.29R WCI 24 MORRISTOWN CLOUDY 30 23 74 N5 30.28R WCI 25 SOMERVILLE CLOUDY 32 20 61 N5 30.28R WCI 27 SUSSEX CLOUDY 29 20 69 NE8 30.26R WCI 21 ANDOVER N/A 29 20 69 VRB3 30.26R TRENTON CLOUDY 31 19 61 NW3 30.30R MILLVILLE CLOUDY 32 23 69 NE3 30.30R ATLANTIC CITY CLOUDY 31 24 75 NW5 30.30R WCI 26 WRIGHTSTOWN CLOUDY 31 21 67 NW7 30.28R WCI 24 TOMS RIVER CLOUDY 32 21 64 N8 30.30R WCI 25 BELMAR CLOUDY 32 18 55 W7 30.29R WCI 26 $$ PAZ047>061-062-071-201500- EASTERN PENNSYLVANIA CITY SKY/WX TMP DP RH WIND PRES REMARKS PHILADELPHIA CLOUDY 33 21 61 NW6 30.32R WCI 28 ALLENTOWN CLOUDY 32 20 61 N3 30.29R SCRANTON CLOUDY 30 21 69 N7 30.23S WCI 23 $$ CTZ002-004>006-009-010-012-RIZ004-006-007-MAZ004-011-015-201500- SOUTHERN NEW ENGLAND IN CT CITY SKY/WX TMP DP RH WIND PRES REMARKS BRADLEY INTL CLOUDY 27 18 69 N10 30.28R WCI 17 HARTFORD CLOUDY 27 19 72 N7 30.29S WCI 19 DANBURY PTSUNNY 28 17 63 N8 30.27S WCI 20 WTRBRY/OXFORD MOSUNNY 27 16 63 N8 30.25R WCI 18 BRIDGEPORT SUNNY 31 20 63 N8 30.28S WCI 23 MERIDEN CLOUDY 28 19 69 N8 30.28S WCI 20 NEW HAVEN PTSUNNY 31 21 66 N10 30.27S WCI 22 CHESTER CLOUDY 28 21 74 N8 30.25F WCI 20 GROTON CLOUDY 29 22 75 N9 30.27R WCI 20 WILLIMANTIC CLOUDY 29 21 72 N5 30.27S WCI 24 IN RI CITY SKY/WX TMP DP RH WIND PRES REMARKS PROVIDENCE CLOUDY 30 21 69 N8 30.28R WCI 22 BLOCK ISLAND CLOUDY 34 25 69 N8 30.25S WCI 27 WESTERLY CLOUDY 30 22 72 N6 30.27S WCI 24 IN MA CITY SKY/WX TMP DP RH WIND PRES REMARKS BOSTON MOSUNNY 30 21 69 NW9 30.29R WCI 22 WORCESTER CLOUDY 26 16 65 N9 30.24R WCI 17 WESTFIELD CLOUDY 26 17 68 N10 30.29R WCI 16 PROVINCETOWN CLOUDY 37 28 70 NE5 30.26R WCI 34 NANTUCKET CLOUDY 39 32 76 NW10 30.24R WCI 32 $$ ANZ330-335-338-340-345-350-353-355-201500- COASTAL MARINE OBSERVATIONS STATION/POSITION TIME SKY/WX TEMP WIND PRES VSBY WAVE AIR SEA DIR/SP/G HT/PER (UTC) (F) (DEG/KT/KT) (MB) (MI) (FT/S) NY HARB ENTRANCE 1400 33 46 360/ 10/ 14 1025.7 1/ 3 4S FIRE IS 1400 46 N/A 1/11 20S FIRE ISLAND 1300 35 49 1024.8 1/ 3 23SW MTP 1400 N/A 1/ 3 HUDSON CANYON 1400 38 54 360/ 8/ 12 1023.8 2/ 4 EXECUTION ROCKS NOT AVBL WESTERN LI SOUND NOT AVBL CENTRAL LI SOUND NOT AVBL EASTERN LI SOUND NOT AVBL ROBBINS REEF 1400 31 320/ 5/ 9 1024.4 $$ >>>>>>>>>>>>>>>>>>>>>>>>>>>> KEY <<<<<<<<<<<<<<<<<<<<<<<<<<< > < > SKY/WX - SKY CONDITION/PRESENT WEATHER < > TMP - TEMPERATURE IN FAHRENHEIT < > DP - DEWPOINT IN FAHRENHEIT < > RH - RELATIVE HUMIDITY IN PERCENT < > WIND - DIRECTION AND SPEED IN MPH < > PRES - MEAN SEA LEVEL PRESSURE IN INCHES OF HG < > WCI - WIND CHILL INDEX < > VSB - VISIBILITY IN MILES < > HX - HEAT INDEX < > TC - TEMPERATURE IN CELSIUS < > VRB - VARIABLE WIND DIRECTION < > < >>>>>>>>>>>>>>>>>>>>>>>>>>>> KEY <<<<<<<<<<<<<<<<<<<<<<<<<<<

USA.gov is the U.S. government's official web portal to all federal, state and local government web resources and services.